Starlink 11550

operational
NORAD ID: 63052 Int'l Des: 2025-035 Owner: SPXS Country: US Constellation: starlink
LEOCIRCULAR

Starlink 11550について

説明を読み込み中...

リアルタイム位置

3D地球を読み込み中...

次回通過

高度履歴

Altitude vs Time

uPlot chart will show altitude changes over time

軌道要素

1 63052U 25035A 25351.73344530 .00200763 00000-0 15251-2 0 9990
2 63052 42.9992 149.1392 0002083 263.8055 96.2576 15.70924764 48332
Epoch: Dec 17, 2025 • Age: 22 hours

現在のステータス

高度 364.2 km
速度 7.69 km/s
衛星直下点 -35.46°S, 45.85°E
打ち上げ日 Feb 21, 2025
運用期間 0.8 years
タイプ internet

技術仕様

分類 Payload
質量 960.00 kg
乾燥質量 910.00 kg
総質量 960.00 kg
長さ 0.30 m
直径 4.10 m
スパン 29.00 m
形状 Box + pan
製造者 SPXS
バスタイプ Starlink V2MD
フェーズステータス In Orbit
所有者/国 SPXS/US

大規模コンステレーション

Loading constellations...